Preview of NWS' New Version of Forecast
This preview is not operational and should not be used for support decisions.

Regional Weather Roundup (RWR)

Issued by National Weather Service (NWS)

                            
000
ASUS43 KDMX 160206
RWRIA 

WEATHER ROUNDUP FOR IOWA
NATIONAL WEATHER SERVICE DES MOINES IA
900 PM CDT SUN SEP 15 2019

NOTE: "FAIR" INDICATES FEW OR NO CLOUDS BELOW 12,000 FEET WITH NO
SIGNIFICANT WEATHER AND/OR OBSTRUCTIONS TO VISIBILITY.

* - THESE STATIONS ARE NOT NWS STATIONS...THUS NOT UNDER NWS
QUALITY CONTROL.  THEY ALSO DO NOT REPORT WEATHER SUCH 
AS PRECIPITATION OR FOG.  

IAZ001>003-012>014-020>022-031>034-043>046-160300-
   NORTHWEST IOWA
  
CITY           SKY/WX    TMP DP  RH WIND       PRES   REMARKS
CARROLL *      CLEAR     70  68  94 SE3       30.01R                  
CHEROKEE *     CLEAR     70  69  95 E3        29.99S                  
DENISON *      CLEAR     72  70  94 E5        30.02R                  
LE MARS *      CLEAR     75  66  73 SE8       29.98R                  
SHELDON *        N/A     68  66  94 SE6       29.98S                  
SIOUX CITY     CLEAR     70  67  90 SE7       29.97R                  
SPENCER        CLEAR     70  66  87 SE7       30.01R                  
STORM LAKE *   CLEAR     68  66  94 SE7       29.99R                  
$$
 
IAZ055>058-069>071-079>083-090>094-160300-
   SOUTHWEST IOWA
  
CITY           SKY/WX    TMP DP  RH WIND       PRES   REMARKS
ATLANTIC *     CLEAR     72  72 100 CALM      30.00R                  
AUDUBON *        N/A     72  68  88 CALM      30.02S                  
CLARINDA *     FOG       72  72 100 CALM      30.01S VSB 1/2          
COUNCIL BLFS * CLEAR     77  72  83 SE6       29.98R                  
CRESTON *      CLEAR     75  72  88 CALM      30.02S                  
LAMONI         CLEAR     79  71  76 S3        30.02R HX  82           
RED OAK *      CLEAR     73  72  94 CALM      30.00R                  
SHENANDOAH *   CLEAR     73  72  94 CALM      29.98R                  
$$
 
IAZ047>049-059>061-072>074-084-160300-
   CENTRAL IOWA
  
CITY           SKY/WX    TMP DP  RH WIND       PRES   REMARKS
AMES           CLEAR     68  67  96 S3        30.01R                  
ANKENY *       CLEAR     73  72  94 N5        30.02R                  
BOONE *        CLEAR     73  72  94 CALM      30.02R                  
CHARITON *     PTCLDY    77  75  94 CALM      30.01R                  
DES MOINES     CLEAR     78  69  73 NE6       30.00R HX  80           
GRINNELL*      CLEAR     72  69  91 N3        30.03R                  
KNOXVILLE *    CLEAR     79  72  78 NE3       30.01R HX  82           
MARSHALLTOWN   CLEAR     72  71  97 NE3       30.02R                  
NEWTON *       CLEAR     75  73  94 N6        30.01R                  
PELLA *        CLEAR     74  69  85 CALM      30.02R                  
PERRY *        FAIR      73  70  90 E5        30.01S                  
$$
 
IAZ004>006-015-016-023>025-035-036-160300-
   NORTH CENTRAL IOWA
  
CITY           SKY/WX    TMP DP  RH WIND       PRES   REMARKS
ALGONA *       CLEAR     68  68 100 SE5       30.01R                  
CLARION *      CLEAR     66  64  94 SE3       30.02R                  
ESTHERVILLE    CLEAR     67  63  87 S5        30.01R                  
FORT DODGE *   CLEAR     67  66  97 CALM      30.02R                  
MASON CITY     CLEAR     63  60  90 CALM      30.04R                  
FOREST CITY *  FAIR      64  64 100 CALM      30.03R                  
IOWA FALLS *     N/A     68  61  78 SE3       30.04R                  
$$

IAZ007>011-017>019-026>030-037>042-050>054-066-160300-
   NORTHEAST IOWA
  
CITY           SKY/WX    TMP DP  RH WIND       PRES   REMARKS
CEDAR RAPIDS   FAIR      75  72  90 NE10      30.01R                  
CHARLES CITY * FAIR      64  64 100 E3        30.03R                  
CLINTON *        N/A     71  70  96 NE6       30.02R                  
DECORAH *      FAIR      68  68 100 CALM      30.02S                  
DUBUQUE        FAIR      68  68 100 CALM      30.04R FOG              
MONTICELLO *   FAIR      72  72 100 CALM      30.02R FOG              
OELWEIN *      CLEAR     70  70 100 CALM      30.04R                  
WATERLOO       FAIR      69  64  84 CALM      30.01R                  
$$
 
IAZ064-065-067-068-078-160300-
   EAST CENTRAL IOWA
  
CITY           SKY/WX    TMP DP  RH WIND       PRES   REMARKS
DAVENPORT      MOCLDY    73  69  87 E3        30.02R                  
IOWA CITY      FAIR      76  72  87 CALM      30.01R                  
MUSCATINE *    FAIR      75  73  94 CALM      30.00R                  
QUAD CITIES    FAIR      74  72  93 CALM      30.00R                  
$$
 
IAZ062-063-075>077-085>089-095>099-160300-
   SOUTHEAST IOWA
  
CITY           SKY/WX    TMP DP  RH WIND       PRES   REMARKS
BURLINGTON     CLEAR     76  72  87 CALM      30.00R                  
FAIRFIELD *      N/A     73  73 100 N3        30.01R                  
FORT MADISON * CLEAR     73  73 100 CALM      30.01S                  
KEOKUK *       CLEAR     75  73  94 CALM      30.00S                  
OSKALOOSA *    FAIR      71  68  90 N3        30.01R                  
CENTERVILLE *  FAIR      73  73 100 CALM      30.03R                  
OTTUMWA        CLEAR     74  70  87 CALM      30.00R                  
WASHINGTON *     N/A    N/A N/A N/A MISG        N/A                   
$$

ABBREVIATIONS USED IN REMARKS
   TC - TEMPERATURES IN CELSIUS
  WCI - WIND CHILL INDEX
   HX - HEAT INDEX
  VSB - VISIBILITY  
$$